This is the latest recevied weather packets stored in our database for station/object NA9VY-8. If no packets are shown the sender has not sent any weather packets the latest 10 day(s).
| Time | Temp. | Humidity | Pressure | Rain* | Wind** | Luminosity | Snow |
|---|---|---|---|---|---|---|---|
| 1777728297 | 7.78° C | 68% | 1025.8 hPa | 0 mm | - | 290 W/m² | - |
| 1777727995 | 7.22° C | 68% | 1025.7 hPa | 0 mm | - | 259 W/m² | - |
| 1777727691 | 7.78° C | 70% | 1025.8 hPa | 0 mm | - | 262 W/m² | - |
| 1777727388 | 7.22° C | 72% | 1025.9 hPa | 0 mm | - | 248 W/m² | - |
| 1777727085 | 6.67° C | 73% | 1025.8 hPa | 0 mm | - | 144 W/m² | - |
| 1777726783 | 6.11° C | 75% | 1025.7 hPa | 0 mm | - | 137 W/m² | - |
| 1777726480 | 6.11° C | 75% | 1025.8 hPa | 0 mm | - | 104 W/m² | - |
| 1777726177 | 6.11° C | 77% | 1025.7 hPa | 0 mm | - | 86 W/m² | - |
| 1777725873 | 6.11° C | 77% | 1025.5 hPa | 0 mm | - | 77 W/m² | - |
| 1777725571 | 6.11° C | 77% | 1025.8 hPa | 0 mm | - | 69 W/m² | - |
| 1777725268 | 6.11° C | 80% | 1025.5 hPa | 0 mm | - | 70 W/m² | - |
| 1777724966 | 5.56° C | 80% | 1025.6 hPa | 0 mm | - | 77 W/m² | - |
| 1777724661 | 5.56° C | 82% | 1025.4 hPa | 0 mm | - | 76 W/m² | - |
| 1777724360 | 5.56° C | 82% | 1025.6 hPa | 0 mm | - | 69 W/m² | - |
| 1777724057 | 5.56° C | 83% | 1025.4 hPa | 0 mm | - | 73 W/m² | - |
| 1777723755 | 5.56° C | 85% | 1025.6 hPa | 0 mm | - | 64 W/m² | - |
| 1777723450 | 5.56° C | 87% | 1025.5 hPa | 0 mm | - | 76 W/m² | - |
| 1777723148 | 5° C | 90% | 1025.5 hPa | 0 mm | - | 70 W/m² | - |
| 1777722845 | 4.44° C | 92% | 1025.3 hPa | 0 mm | - | 49 W/m² | - |
| 1777722541 | 4.44° C | 94% | 1025.3 hPa | 0 mm | - | 33 W/m² | - |
| 1777722238 | 4.44° C | 95% | 1025.3 hPa | 0 mm | - | 28 W/m² | - |
| 1777721935 | 4.44° C | 95% | 1025.3 hPa | 0 mm | - | 17 W/m² | - |
| 1777721632 | 3.89° C | 96% | 1025.1 hPa | 0 mm | - | 18 W/m² | - |
| 1777721331 | 3.89° C | 96% | 1024.9 hPa | 0 mm | - | 15 W/m² | - |
| 1777721028 | 3.89° C | 96% | 1024.8 hPa | 0 mm | - | 15 W/m² | - |
* Rain latest hour (hover to see other rain measurements)
** Current wind speed in m/s (hover to see current wind gust speed)